[Date Prev][Date Next][Thread Prev][Thread Next] - [Date Index][Thread Index][Author Index]
2 Line ISS Keps 7-19
- Subject: [sarex] 2 Line ISS Keps 7-19
- From: "Dave Larsen PhD" <doc@xxxxxxxxxxx>
- Date: Mon, 18 Jul 2005 21:19:38 -0700
ISS
1 25544U 98067A 05200.09669008 .00010738 00000-0 85657-4 0 9427
2 25544 051.6441 097.4689 0003442 134.0323 012.0132 15.71774612380703
----
Via the sarex mailing list at AMSAT.ORG courtesy of AMSAT-NA.
To unsubscribe, send "unsubscribe sarex" to Majordomo@amsat.org
AMSAT Home